TimeEDT,TemperatureF,Dew PointF,Humidity,Sea Level PressureIn,VisibilityMPH,Wind Direction,Wind SpeedMPH,Gust SpeedMPH,PrecipitationIn,Events,Conditions,WindDirDegrees,DateUTC
12:54 AM,72.0,69.1,91,30.14,10.0,Calm,Calm,-,N/A,,Scattered Clouds,0,2013-07-03 04:54:00
1:54 AM,71.1,69.1,93,30.12,10.0,Calm,Calm,-,N/A,,Scattered Clouds,0,2013-07-03 05:54:00
2:54 AM,75.0,69.1,82,30.13,10.0,Calm,Calm,-,N/A,,Overcast,0,2013-07-03 06:54:00
3:54 AM,73.0,69.1,87,30.13,10.0,SSW,4.6,-,0.01,,Overcast,200,2013-07-03 07:54:00
4:54 AM,73.0,68.0,84,30.14,10.0,SSW,3.5,-,N/A,,Overcast,200,2013-07-03 08:54:00
5:54 AM,73.0,68.0,84,30.16,10.0,SW,3.5,-,N/A,,Overcast,220,2013-07-03 09:54:00
6:54 AM,73.9,68.0,82,30.17,10.0,SSW,5.8,-,N/A,,Scattered Clouds,200,2013-07-03 10:54:00
7:54 AM,75.0,68.0,79,30.19,10.0,SW,3.5,-,N/A,,Partly Cloudy,220,2013-07-03 11:54:00
8:54 AM,75.9,69.1,79,30.20,10.0,South,3.5,-,N/A,,Overcast,170,2013-07-03 12:54:00
9:54 AM,77.0,69.1,76,30.20,10.0,SW,4.6,-,N/A,,Mostly Cloudy,230,2013-07-03 13:54:00
10:54 AM,80.1,69.1,69,30.20,10.0,SW,5.8,-,N/A,,Mostly Cloudy,220,2013-07-03 14:54:00
11:54 AM,81.0,69.1,67,30.19,10.0,Variable,5.8,-,N/A,,Mostly Cloudy,0,2013-07-03 15:54:00
12:54 PM,80.1,68.0,67,30.19,10.0,West,6.9,-,N/A,,Mostly Cloudy,260,2013-07-03 16:54:00
1:54 PM,82.0,69.1,65,30.17,10.0,WSW,3.5,-,N/A,,Overcast,240,2013-07-03 17:54:00
2:54 PM,82.0,69.1,65,30.17,10.0,SSW,6.9,-,N/A,,Overcast,200,2013-07-03 18:54:00
3:54 PM,82.9,69.1,63,30.15,10.0,Variable,5.8,-,N/A,,Overcast,0,2013-07-03 19:54:00
4:54 PM,82.9,70.0,65,30.14,10.0,SSW,3.5,-,N/A,,Mostly Cloudy,200,2013-07-03 20:54:00
5:54 PM,84.0,70.0,63,30.13,10.0,SW,5.8,-,N/A,,Partly Cloudy,220,2013-07-03 21:54:00
6:54 PM,82.0,70.0,67,30.14,10.0,SW,3.5,-,N/A,,Clear,220,2013-07-03 22:54:00
7:54 PM,81.0,70.0,69,30.16,10.0,Variable,3.5,-,N/A,,Clear,0,2013-07-03 23:54:00
8:54 PM,75.9,70.0,82,30.16,10.0,Calm,Calm,-,N/A,,Clear,0,2013-07-04 00:54:00
9:54 PM,78.1,68.0,71,30.18,10.0,SSW,4.6,-,N/A,,Clear,200,2013-07-04 01:54:00
10:54 PM,72.0,69.1,91,30.18,10.0,Calm,Calm,-,N/A,,Clear,0,2013-07-04 02:54:00
11:54 PM,72.0,68.0,87,30.19,10.0,Calm,Calm,-,N/A,,Partly Cloudy,0,2013-07-04 03:54:00